Tracking 19908 objects as of 18-Oct-2019
HD Live streaming from Space Station
objects crossing your sky now

SCOUT B DEB

Track SCOUT B DEB now!
10-day predictions


NORAD ID: 29166
Int'l Code: 1965-063Q
Perigee: 1,039.9 km
Apogee: 2,341.7 km
Inclination: 69.2 °
Period: 120.1 minutes
Semi major axis: 8061 km
RCS: 0.0113 m2 (small)
Launch date: August 10, 1965
Source: United States (US)
Launch site: WALLOPS ISLAND (WLPIS)

Note: This is SATELLITE DEBRIS
aabbcc
Your satellite tracking list
Your tracking list is empty




NASA's NSSDC Master Catalog

Two Line Element Set (TLE):
1 29166U 65063Q   16017.77890314 +.00000547 +00000-0 +27973-2 0  9994
2 29166 069.1918 056.7596 0807395 049.7383 055.0605 11.99376191048330
Source of the keplerian elements: AFSPC